Wind_Speed
27 27 27 27 28 27 27 26 25 25 24 23 23 23 23 23 23 23 24 25 26 28 30 32 33 35 36 38 39 39 39 40 40 39 40 41 42 41 42 43 44 44 43 42 42 42 42 43 42 40 37 35 31 29 27 27 27 27 25 19 17 18 17 17 13 9 9 6 5 4 6 7 7 6 4 2 4 9 14 19 22 21 20 20 21 22 23 23
29 30 30 30 30 30 30 30 29 28 27 26 26 25 25 25 25 25 25 25 26 28 29 31 33 35 36 38 39 40 40 41 40 40 42 42 42 42 43 44 45 45 45 44 44 44 44 45 44 42 39 37 34 31 29 28 28 29 26 19 18 21 20 18 16 11 10 8 7 7 8 8 6 5 5 1 5 9 14 17 20 20 19 19 20 21 22 23
31 32 32 32 33 33 33 33 32 32 31 30 29 28 27 27 27 27 27 27 27 28 29 31 33 35 36 38 40 41 42 42 41 42 43 43 43 43 43 44 45 46 47 46 46 46 46 46 45 44 41 39 36 33 31 29 30 30 28 24 22 23 22 21 19 15 13 12 10 10 10 5 3 6 6 2 7 9 13 15 17 20 19 18 19 20 22 23
30 31 32 33 34 34 34 34 35 35 34 34 32 31 30 29 29 28 29 29 29 29 30 31 33 35 36 38 40 41 43 42 42 43 44 43 44 44 44 44 46 47 48 48 47 47 46 46 47 46 44 41 39 36 34 32 31 32 30 28 24 23 24 23 22 18 16 15 12 11 10 4 4 7 4 4 6 9 12 13 15 18 19 18 18 19 21 23
31 32 33 33 34 34 35 36 36 37 37 37 36 35 34 33 32 31 31 31 31 31 31 31 33 35 37 38 40 41 43 43 43 45 44 45 45 45 45 45 46 48 50 50 49 48 47 47 48 48 46 44 41 38 36 34 33 33 32 31 26 22 23 24 23 19 17 17 14 12 11 7 7 7 3 4 3 6 9 10 12 16 18 17 17 18 19 22
34 35 35 35 35 35 36 37 37 38 39 40 39 38 37 36 35 34 34 33 33 33 33 32 33 35 37 39 40 42 43 43 45 46 45 46 46 46 47 46 47 49 51 51 51 49 48 48 49 50 49 46 44 41 38 36 35 34 34 33 28 22 21 24 24 22 20 18 16 15 12 9 8 7 4 3 4 3 5 7 10 14 15 16 16 17 18 20
37 38 38 39 39 39 39 39 40 40 40 41 41 41 40 39 39 38 37 37 36 35 35 34 34 36 38 39 41 42 43 44 46 47 47 48 47 47 48 48 49 50 51 53 52 51 49 49 50 51 51 49 46 44 41 38 37 35 35 34 30 26 25 25 24 23 21 19 17 15 12 10 8 8 8 9 7 2 2 4 8 11 13 14 15 16 17 19
39 40 41 42 43 44 44 45 44 44 43 43 43 43 43 42 42 42 41 41 40 39 37 37 37 37 38 39 41 42 43 45 47 48 48 49 49 49 49 49 50 50 52 53 53 52 51 49 50 51 52 51 49 46 43 41 39 37 37 36 34 32 30 26 22 23 22 19 17 15 12 10 9 10 11 10 6 2 1 2 6 9 11 12 13 15 17 18
41 42 44 45 46 47 48 49 49 48 47 46 45 45 44 44 44 44 45 44 44 43 41 39 39 39 39 40 41 42 43 45 47 49 50 50 50 50 50 51 51 51 52 53 54 54 52 51 50 52 53 53 52 49 46 43 41 40 39 38 36 34 32 29 24 23 22 20 17 15 12 10 9 12 12 10 6 3 2 2 4 7 9 11 12 14 15 17
43 44 45 46 47 48 49 51 51 52 51 50 49 48 47 46 46 46 46 47 47 46 45 43 42 41 41 41 41 42 44 46 48 50 51 51 51 52 52 52 52 52 53 54 55 55 53 52 52 53 54 54 53 51 48 45 43 42 41 40 39 37 34 31 26 23 22 20 17 15 12 10 11 14 13 10 7 4 3 3 3 5 7 9 10 13 14 16
46 47 47 47 47 48 50 52 54 54 54 54 53 52 50 49 48 48 48 49 49 50 49 47 46 44 44 44 43 42 44 46 49 51 52 52 53 53 53 53 53 54 54 54 55 55 54 54 54 54 54 55 54 53 51 47 45 44 43 42 40 39 37 34 29 25 22 21 17 15 13 10 12 14 12 11 8 6 5 4 4 4 5 7 8 11 13 14
48 49 49 50 50 50 50 52 54 57 57 57 56 55 54 52 51 51 50 50 50 52 53 52 50 48 47 46 44 43 45 47 50 52 53 53 54 54 55 54 54 55 55 54 54 55 57 57 57 55 55 55 54 54 53 50 47 46 45 44 42 41 40 37 33 28 24 21 17 16 15 13 13 11 10 11 10 8 7 6 5 2 3 5 6 9 11 13
51 52 53 53 53 53 53 53 54 57 59 60 59 57 56 54 53 53 53 53 52 52 54 55 54 52 50 48 46 46 47 48 49 52 53 54 55 55 56 55 55 56 56 55 54 56 59 59 59 57 56 55 54 54 54 53 50 48 47 46 44 43 42 39 35 31 26 22 20 19 18 17 16 13 12 13 12 11 10 7 5 2 1 2 5 8 9 11
55 56 56 57 57 56 55 55 55 56 58 60 60 59 57 56 55 55 56 56 54 53 54 56 57 56 54 51 50 50 50 48 49 51 52 53 54 55 56 56 57 57 56 55 54 56 59 61 61 60 57 56 56 55 55 54 52 50 49 48 46 45 43 41 37 32 27 23 22 22 20 19 18 16 15 14 14 14 12 9 6 4 2 2 4 7 8 9
58 59 59 59 59 58 57 57 56 57 57 59 60 60 59 59 59 59 59 59 57 56 55 56 58 59 58 55 54 53 51 50 48 49 50 52 54 55 56 57 57 57 56 55 54 55 58 63 64 62 60 59 58 56 56 55 54 53 51 50 49 47 44 41 37 32 28 24 25 25 23 20 19 18 17 15 14 14 12 10 8 6 4 3 3 6 7 8
59 61 62 62 61 60 59 58 57 57 57 58 60 61 62 62 63 63 63 62 61 58 57 57 59 61 61 60 58 55 52 50 49 49 50 51 54 55 57 57 58 58 58 56 55 55 58 62 64 64 63 62 60 59 58 57 56 55 54 52 51 49 46 42 38 34 29 26 27 28 26 23 21 21 19 16 16 15 12 10 10 8 6 5 3 5 5 7
61 63 64 64 63 61 60 59 58 57 57 58 60 62 64 65 65 65 64 65 64 62 60 60 60 62 63 63 61 57 54 52 51 51 50 52 54 56 57 58 60 60 59 58 57 57 58 60 64 66 65 63 62 61 60 59 58 58 56 54 53 51 48 45 41 36 30 29 29 30 29 27 25 24 21 18 17 17 13 11 11 10 8 5 3 4 4 5
64 66 67 67 65 63 61 59 58 57 56 57 58 60 62 65 66 66 65 66 67 64 62 62 61 62 63 64 63 60 58 56 55 54 53 53 54 56 58 59 60 60 60 59 59 59 59 59 63 66 66 64 64 64 64 62 60 59 57 56 54 53 50 47 45 40 34 31 31 32 32 31 29 26 24 20 17 18 16 13 12 11 8 6 4 3 3 3
66 68 69 69 68 65 62 60 58 56 55 54 54 55 57 60 63 65 65 67 68 67 65 64 63 64 64 64 64 63 63 61 58 57 56 55 55 55 58 60 61 61 61 61 61 61 61 61 62 65 68 67 67 67 66 63 60 59 59 58 56 54 52 49 48 46 40 35 32 33 35 35 32 29 26 22 18 18 17 14 13 12 9 8 5 3 2 2
69 70 71 71 69 66 62 59 56 53 50 49 49 49 51 54 58 61 63 66 69 69 68 67 65 65 65 65 65 66 66 64 62 60 58 57 56 56 57 59 60 61 63 62 63 63 63 63 62 65 69 71 71 69 66 63 61 61 61 60 58 56 55 53 51 50 46 39 35 33 35 35 33 29 26 22 18 18 17 15 14 12 11 10 7 5 3 2
70 72 73 72 70 66 62 56 52 48 45 43 43 44 46 49 52 56 60 65 69 70 70 69 68 67 67 67 67 67 67 66 65 63 61 59 58 58 57 58 59 61 63 64 64 65 65 65 65 67 69 71 71 69 67 65 63 63 62 61 59 58 57 56 55 53 51 46 39 35 35 34 32 30 27 23 20 19 18 16 16 14 12 11 9 7 5 3
72 73 73 73 70 66 59 52 47 43 40 37 37 38 40 43 46 50 56 62 68 71 72 72 71 70 69 68 69 68 68 68 68 67 65 63 61 60 59 58 58 60 63 65 66 66 67 68 69 68 67 69 71 70 69 67 65 64 63 62 62 60 58 59 59 57 56 54 46 40 37 36 35 33 30 26 23 20 18 18 17 16 13 11 10 9 7 6
73 74 74 73 71 64 56 48 43 39 35 32 31 32 34 37 41 45 51 58 65 71 74 75 74 73 72 71 71 71 70 70 69 69 68 66 64 62 60 59 59 60 63 65 67 68 70 71 71 69 67 67 70 72 71 69 68 66 64 63 63 61 60 61 61 59 59 58 53 45 41 40 39 37 34 30 26 23 21 20 19 18 16 13 11 11 9 8
73 75 74 74 71 62 52 45 40 35 32 29 27 27 28 31 35 40 45 52 60 68 74 77 78 77 74 72 72 72 71 71 70 70 69 68 66 64 63 61 60 61 62 65 68 70 72 73 72 70 69 68 68 71 73 72 70 68 65 64 64 63 63 63 62 61 60 58 55 50 46 42 40 37 34 32 29 25 23 22 21 20 18 15 14 13 12 10
75 75 75 74 71 60 49 42 37 32 28 26 23 23 23 25 29 34 39 46 53 62 71 77 79 79 76 74 73 73 73 73 72 72 71 70 68 67 65 63 62 62 62 64 67 70 72 72 71 71 70 69 68 70 73 74 72 70 68 66 64 64 65 65 64 64 62 60 56 54 50 45 41 38 33 33 32 28 25 25 24 22 20 18 18 16 15 13
75 76 75 75 70 57 46 40 34 29 26 23 21 20 20 21 24 28 33 39 46 54 63 72 78 80 80 78 77 76 75 75 75 74 72 71 70 69 67 65 64 63 62 63 65 68 71 72 72 72 71 70 69 68 71 74 74 72 70 68 67 67 67 67 67 66 65 61 57 56 55 50 45 40 35 35 35 32 28 27 27 25 23 23 21 19 18 15
76 77 76 76 69 55 44 38 32 27 23 20 19 17 16 17 19 23 28 34 40 47 55 63 72 78 81 82 81 79 78 77 77 76 74 72 71 70 69 68 66 65 64 63 63 66 70 72 73 73 72 71 70 68 69 73 75 74 72 72 71 69 69 69 69 68 66 63 60 57 57 55 49 42 39 40 38 35 32 30 29 27 25 25 23 21 20 18
77 78 77 76 67 53 42 36 30 25 22 19 17 15 14 14 16 18 23 28 34 40 47 55 64 72 78 81 82 83 82 80 79 77 76 74 73 72 71 70 68 67 66 64 63 65 69 72 73 72 72 71 71 71 70 72 75 76 75 75 74 72 71 70 70 69 67 66 65 61 59 58 53 47 44 43 40 35 34 33 31 29 27 26 25 23 22 21
78 78 78 76 66 51 40 34 29 25 21 18 15 14 13 12 13 15 18 23 29 34 41 47 55 64 71 77 81 84 84 83 81 79 78 77 75 73 73 72 70 68 68 67 65 65 67 70 71 71 71 72 73 73 72 72 74 77 77 77 76 75 73 72 72 71 69 67 68 65 62 60 58 53 48 45 40 35 33 34 34 33 31 29 28 25 23 23
79 79 78 75 64 49 39 32 28 24 21 17 14 13 12 11 11 11 14 19 24 29 35 42 48 55 63 71 77 81 84 84 83 82 81 79 77 75 75 73 71 69 70 70 68 66 65 67 69 70 71 72 74 75 75 75 75 76 77 78 78 78 76 74 73 71 69 69 69 68 65 62 61 59 54 49 44 37 33 33 35 36 36 33 31 28 26 25
80 80 78 74 62 47 37 31 26 23 20 17 15 12 11 10 9 9 11 15 19 24 30 36 43 49 57 65 72 77 81 84 85 84 83 82 80 78 77 76 73 71 72 72 71 68 66 65 67 70 72 73 75 76 77 76 75 75 76 77 79 79 78 75 72 70 69 70 70 69 68 66 63 63 60 56 52 45 36 34 35 37 37 34 31 29 27 26
82 81 78 73 60 46 36 30 25 22 19 17 14 12 11 9 8 8 9 11 15 20 25 31 37 44 51 59 67 73 78 81 84 85 85 84 83 81 80 79 77 75 75 75 73 71 69 66 67 71 74 75 76 77 78 78 77 75 74 75 78 80 79 76 72 70 69 70 70 70 70 69 67 64 63 61 58 50 42 37 36 37 37 36 33 30 28 28
83 82 78 72 59 44 35 29 24 21 19 16 14 12 10 8 7 7 8 9 12 16 21 26 31 37 44 51 59 67 74 79 82 85 85 85 84 84 83 81 80 78 77 77 76 74 71 68 69 73 75 76 76 76 77 78 78 77 75 75 76 78 79 77 73 71 71 71 71 71 72 71 70 66 64 63 60 55 48 42 39 38 39 39 35 33 31 29
85 83 79 71 58 43 34 28 24 21 19 16 13 11 9 8 7 7 7 7 9 13 17 21 26 31 37 44 51 59 67 74 79 82 84 85 85 85 84 83 82 80 79 78 77 76 74 71 72 74 76 77 77 77 78 80 81 79 78 78 77 77 79 79 77 75 75 75 74 73 71 71 71 69 67 65 62 59 54 47 42 40 41 42 40 38 36 31
86 84 80 71 57 43 34 28 23 21 18 16 14 11 9 7 7 7 6 6 8 10 13 17 22 27 32 38 44 52 60 68 74 78 82 84 85 85 85 84 83 82 81 80 79 79 77 75 75 75 76 77 78 79 80 81 82 81 80 80 78 77 78 81 81 81 80 79 76 73 72 72 74 73 71 68 63 61 59 52 47 43 42 45 44 42 41 36
86 86 80 71 57 43 33 27 23 21 18 17 15 13 10 8 7 7 6 6 7 8 11 14 17 22 27 33 39 46 53 60 68 74 78 81 83 84 85 85 84 84 83 82 82 81 80 79 78 77 76 78 80 80 80 81 82 82 80 79 78 78 79 81 83 83 82 79 76 74 73 75 76 74 73 71 66 63 61 57 53 48 44 45 45 44 43 40
87 86 81 71 57 43 34 27 22 20 18 17 15 14 13 11 9 9 8 8 8 9 10 12 14 18 23 29 34 40 47 54 61 68 73 78 81 83 84 84 84 84 84 84 84 83 82 82 81 79 78 79 80 80 80 81 82 81 80 80 81 82 81 81 82 83 82 80 77 75 75 75 75 73 72 72 70 67 64 61 58 55 49 46 45 44 44 42
87 87 81 71 56 42 33 27 22 19 18 17 16 16 15 14 12 12 11 10 10 11 12 13 14 16 20 25 30 36 42 49 55 62 68 73 77 80 82 84 85 85 86 86 86 85 84 84 83 82 80 80 80 81 81 81 81 80 80 82 84 83 82 81 80 80 80 80 80 78 77 76 75 74 73 73 72 70 68 64 62 60 56 51 48 47 46 45
88 88 82 71 56 41 33 27 21 18 17 17 17 17 17 16 15 15 15 14 14 16 17 17 18 19 20 23 27 32 38 44 51 57 63 68 72 77 80 82 84 86 87 88 87 86 86 86 85 84 83 82 81 81 81 81 81 81 82 83 84 82 82 81 80 79 79 81 82 82 80 78 77 76 76 74 73 72 71 69 66 62 59 57 54 52 50 48
88 88 82 70 55 41 33 26 20 17 17 17 18 18 17 17 18 18 18 17 18 20 21 22 23 23 24 25 27 31 35 41 47 53 58 63 68 72 77 80 83 85 87 89 88 88 87 87 86 86 85 84 82 81 81 81 82 83 82 83 83 83 82 82 80 79 78 79 82 83 82 80 80 80 78 76 75 74 73 72 71 67 62 60 58 57 55 52
88 89 83 70 55 42 33 26 20 17 16 17 19 18 18 18 19 20 20 20 21 23 24 25 26 26 27 28 29 31 34 38 43 49 53 59 63 68 73 78 81 85 87 89 89 88 88 88 88 87 87 86 84 83 82 82 83 84 84 83 84 84 83 83 81 80 78 78 79 82 83 83 84 83 80 78 77 77 76 75 75 73 69 64 61 61 59 56
88 88 82 70 55 42 33 27 20 17 15 17 18 19 19 18 19 19 20 21 22 24 26 27 28 29 30 30 31 32 34 37 41 46 50 55 60 65 70 74 78 83 86 88 89 89 89 89 89 89 88 88 86 84 84 84 85 85 85 84 84 84 84 84 82 81 80 79 78 80 82 85 86 85 82 80 78 78 78 77 77 77 75 71 66 63 62 61
88 88 81 69 54 41 33 27 20 17 15 16 17 18 18 18 17 17 18 20 22 24 25 26 28 29 31 32 32 32 34 37 40 44 48 53 58 62 66 71 75 80 84 87 88 89 89 89 90 90 90 89 88 87 86 86 86 86 85 85 84 83 83 83 83 83 83 82 80 80 81 83 86 86 84 82 80 80 80 79 78 77 78 77 73 68 65 64
88 86 80 68 53 41 34 28 21 17 15 15 16 16 17 17 16 16 17 19 21 22 23 24 25 27 29 32 33 34 34 36 40 43 46 51 56 60 64 68 72 76 81 84 86 88 89 90 91 91 91 91 91 90 89 87 87 86 86 85 84 83 83 84 84 85 84 83 82 81 80 81 84 87 86 85 84 83 82 81 79 78 78 78 78 75 71 69
87 85 78 66 52 40 34 28 22 17 15 15 15 16 16 17 16 15 16 17 19 20 21 22 22 23 25 28 32 35 36 37 40 43 46 49 53 58 62 66 70 74 77 81 84 86 87 90 91 92 92 93 92 91 90 89 88 87 86 85 84 84 84 84 85 85 84 84 83 82 81 81 83 84 85 86 87 86 84 82 81 80 80 79 79 79 77 75
87 84 76 64 50 39 34 28 21 17 15 15 16 16 17 17 16 15 15 16 16 18 19 20 20 20 21 23 27 32 36 39 41 44 47 49 51 55 60 64 68 72 75 78 81 83 86 88 90 92 93 93 93 93 92 90 89 88 87 86 85 84 84 84 84 84 84 85 85 84 83 83 83 83 84 86 87 87 86 86 84 83 82 81 80 80 80 80
86 82 73 61 47 37 33 28 20 16 14 16 17 17 17 17 16 15 15 15 15 16 18 19 19 18 18 19 22 27 32 38 42 45 48 50 52 54 57 61 65 69 72 75 78 81 84 86 89 91 93 93 94 93 92 91 91 89 88 87 87 86 85 84 84 84 85 85 86 86 86 85 85 84 84 85 86 87 87 87 87 85 84 82 82 81 81 82
85 80 71 59 45 35 31 28 21 16 15 15 16 17 17 17 16 15 14 14 14 14 16 18 19 18 16 16 18 22 27 33 40 45 49 52 54 55 57 59 62 66 69 72 75 78 81 84 87 89 91 92 93 93 93 92 92 91 90 89 88 87 86 85 85 85 85 85 86 87 87 87 87 86 85 84 85 87 87 87 87 87 85 84 83 82 82 83
84 78 68 56 44 34 30 27 22 17 16 15 14 16 18 18 16 14 14 14 13 13 15 17 19 19 17 14 15 18 22 28 35 42 48 52 55 57 58 58 60 63 66 69 72 75 78 81 85 87 88 90 92 93 94 93 93 92 92 91 90 89 88 87 86 86 85 85 86 87 87 88 89 88 87 85 85 86 86 87 87 87 87 86 85 84 84 83
81 74 64 53 42 33 29 26 22 18 18 16 14 15 18 18 16 15 14 14 13 13 14 15 17 19 19 16 13 14 18 23 29 37 45 51 55 58 59 59 60 61 64 66 69 71 75 78 81 84 85 87 90 92 93 94 94 94 93 93 92 91 90 89 88 87 86 86 86 87 87 88 89 89 89 88 86 85 85 86 87 88 88 88 87 86 85 84
79 71 60 50 40 32 28 25 22 19 18 17 15 15 17 17 16 15 14 14 14 14 15 15 15 17 19 18 13 12 14 18 24 31 39 46 52 57 60 61 61 61 62 64 66 69 71 75 77 80 82 84 87 90 92 93 95 95 95 95 95 94 94 92 91 90 88 87 87 87 86 87 88 90 91 90 89 88 87 87 87 88 89 89 89 87 86 84
76 67 57 46 38 32 27 24 21 19 18 18 16 16 17 17 15 15 14 14 14 14 15 16 16 16 17 18 14 11 11 14 18 24 32 40 47 54 58 61 63 63 63 63 65 67 69 71 73 75 78 81 83 86 89 92 93 95 96 97 97 97 96 95 94 92 91 90 88 87 87 87 88 90 91 92 91 91 90 90 89 89 90 90 89 88 87 86
Wind_Direction
294 292 290 289 287 285 284 281 279 276 275 274 275 275 274 274 270 263 253 246 242 239 238 236 233 230 228 228 226 225 225 225 224 221 219 218 217 215 214 216 214 211 210 208 206 204 201 199 199 196 194 194 196 200 202 203 203 206 209 211 209 198 195 188 174 190 203 187 173 187 226 246 295 316 305 305 40 36 30 30 26 21 25 29 27 26 29 35
297 295 293 290 288 286 285 283 280 277 275 272 271 271 271 270 270 267 261 252 245 240 238 236 235 232 228 227 226 225 224 225 224 223 221 218 217 216 214 215 215 212 210 209 207 205 202 200 199 196 195 196 198 201 204 205 203 205 205 201 204 200 193 184 174 186 203 189 178 202 230 246 272 286 274 245 72 43 34 33 26 21 24 28 27 26 26 33
301 300 298 295 292 289 286 284 282 279 277 274 271 269 268 267 266 266 264 258 250 243 239 236 235 233 230 227 226 225 224 224 224 224 222 219 218 216 214 214 215 213 210 209 208 206 203 200 199 197 196 197 200 203 205 207 205 204 204 202 206 201 190 183 178 186 199 190 184 208 224 236 272 269 260 125 77 47 37 35 27 22 24 27 26 25 26 30
301 300 298 296 294 292 289 286 283 280 278 275 272 269 267 266 264 263 263 260 255 248 242 238 235 233 231 228 226 225 224 223 223 224 223 221 219 217 215 214 215 214 211 210 209 207 204 201 199 198 197 198 201 204 205 208 206 205 204 207 211 201 191 186 184 189 196 192 192 210 215 211 258 257 224 116 74 45 38 35 28 24 24 26 23 24 26 28
301 299 297 295 293 291 289 287 284 281 278 275 272 270 267 265 263 262 261 259 257 252 246 241 237 234 232 229 227 225 224 223 222 223 223 222 220 218 216 214 215 215 213 211 209 207 205 202 200 199 199 200 203 204 206 208 208 207 205 210 213 203 195 191 190 195 196 195 196 207 210 203 233 243 177 111 43 25 33 32 27 24 23 22 21 22 26 29
303 301 299 296 294 291 289 287 284 281 279 276 273 269 266 264 262 261 260 258 256 253 249 244 240 236 232 230 228 225 223 222 222 222 222 223 221 219 217 215 215 215 213 212 210 207 206 204 201 200 200 201 203 205 207 208 209 208 207 211 213 209 206 201 199 203 202 199 198 206 211 204 218 234 227 260 291 340 27 25 22 24 21 18 19 21 27 30
304 302 300 298 295 293 291 288 285 282 279 277 274 271 266 263 261 259 258 257 255 252 250 246 242 239 234 231 228 227 224 222 222 222 221 222 221 220 218 215 215 215 214 212 211 208 206 205 202 201 202 202 204 206 207 208 210 209 208 211 211 212 215 211 206 208 209 205 202 209 217 209 211 230 241 253 260 282 30 12 16 22 19 15 16 21 27 30
303 302 299 297 295 293 291 288 286 283 280 277 274 271 268 264 260 257 255 255 254 252 249 247 244 241 237 233 229 227 225 223 221 221 221 222 221 221 219 217 215 216 215 213 212 209 207 206 204 203 203 204 205 207 207 207 209 210 210 211 211 212 215 214 208 206 209 208 206 209 215 208 212 235 234 232 235 209 125 341 5 15 17 13 14 21 28 30
303 301 299 296 294 292 290 287 285 283 280 276 273 271 268 265 261 257 254 252 252 251 248 246 245 242 239 236 231 227 226 224 222 221 220 221 221 220 220 218 216 216 215 213 212 210 207 206 206 205 205 205 207 208 208 206 208 209 211 211 212 213 215 214 207 200 202 205 206 205 207 207 220 241 233 218 211 179 194 289 344 5 14 10 13 22 29 32
302 300 298 295 293 291 288 286 283 281 278 275 272 269 267 265 263 258 254 250 249 249 248 246 244 242 240 237 233 229 227 225 223 221 220 220 220 220 220 219 217 217 216 214 212 211 208 207 207 207 206 206 207 209 208 207 207 209 211 212 212 213 216 216 209 200 198 203 206 203 203 203 212 227 226 213 197 185 228 270 319 353 12 9 13 23 30 34
304 302 299 296 292 290 287 285 282 280 277 274 271 268 265 263 262 260 256 251 248 246 246 244 242 241 240 238 235 232 229 226 224 222 220 219 219 219 220 219 218 218 216 214 212 211 209 209 209 208 207 207 208 209 209 207 207 209 211 212 213 213 215 217 214 207 203 206 208 206 204 195 199 213 218 209 196 202 234 261 290 335 10 9 15 25 32 35
307 304 301 297 293 290 287 285 282 280 277 274 271 268 265 262 261 260 257 253 248 245 243 243 241 240 239 238 236 234 231 227 224 223 221 219 219 219 219 219 219 218 217 215 213 212 211 211 210 209 208 208 209 210 210 208 207 208 211 213 214 215 216 217 216 213 212 212 208 207 206 200 199 203 211 206 196 204 225 248 265 309 5 9 22 28 32 36
309 307 303 299 295 291 288 286 284 281 278 275 272 268 266 262 260 259 258 255 250 245 242 241 240 239 238 237 236 235 232 229 225 223 222 220 219 219 219 219 219 219 218 216 213 212 212 212 211 210 209 208 210 210 210 209 208 208 210 212 214 216 217 217 217 216 218 217 210 206 206 208 206 199 207 210 201 207 217 228 244 256 350 25 38 34 35 36
312 309 306 302 297 293 290 288 285 282 279 275 272 268 264 262 259 258 257 256 252 247 242 240 239 238 237 236 235 234 233 231 227 224 223 222 221 219 219 219 219 219 219 217 214 213 213 212 212 211 210 209 210 210 210 210 208 208 209 211 213 216 218 219 218 216 216 216 211 208 207 210 209 198 204 215 209 207 208 206 215 223 196 95 58 43 40 37
313 311 308 305 301 296 293 290 287 283 279 275 271 267 263 260 258 256 255 255 252 248 243 239 237 236 235 234 234 233 233 232 230 227 224 222 222 221 219 218 219 220 219 218 217 215 214 213 213 211 210 210 210 210 210 210 208 208 208 210 212 214 216 218 218 215 213 214 212 212 210 208 208 202 201 214 213 201 195 193 202 209 180 135 79 53 47 41
315 313 310 308 304 300 296 293 289 284 278 274 270 266 263 260 257 254 252 252 251 247 243 239 235 234 234 233 232 232 232 232 231 229 225 223 222 221 219 218 218 219 219 219 218 218 216 214 214 212 211 211 210 210 210 209 208 207 207 209 211 213 214 215 215 212 211 213 216 217 215 209 207 205 200 210 218 207 197 195 199 198 169 144 95 63 54 47
316 314 313 311 308 304 300 296 292 286 280 275 269 265 262 259 256 252 249 247 247 245 241 238 234 232 232 231 231 231 231 231 230 230 227 224 221 221 220 218 217 218 218 218 219 219 217 215 214 213 213 212 212 211 210 209 208 208 207 208 210 212 213 213 212 210 208 209 215 218 217 212 208 206 202 205 216 215 209 203 198 191 166 150 124 81 64 54
318 317 316 315 312 309 305 301 296 290 284 278 271 265 259 256 253 250 246 243 242 241 238 236 233 231 230 230 229 229 229 229 229 229 228 226 222 220 219 219 217 216 217 218 218 219 219 216 215 214 214 214 213 213 211 210 209 208 208 207 209 211 212 212 211 210 205 202 207 212 215 215 209 206 205 203 211 216 212 205 199 191 172 163 154 117 83 66
320 319 319 318 316 313 310 306 301 295 288 281 273 265 259 253 249 246 242 239 237 237 235 233 231 229 228 227 227 227 227 227 227 227 227 226 224 221 219 219 217 216 215 216 217 219 219 217 215 215 214 214 214 214 213 211 210 209 209 208 208 210 211 210 210 210 205 199 200 208 215 217 210 206 206 205 210 215 208 198 196 195 182 174 177 167 138 95
322 322 322 321 320 318 314 310 304 298 291 283 275 267 259 252 247 242 237 234 232 232 231 230 230 228 227 225 225 225 225 225 225 226 226 226 225 223 220 219 218 217 215 215 216 218 218 217 216 215 215 214 214 214 213 211 211 211 210 209 208 209 210 209 208 209 206 199 196 203 216 218 212 209 209 208 213 214 206 199 197 196 188 181 186 195 189 171
325 325 325 324 324 322 318 313 307 300 293 284 275 267 259 252 246 240 234 230 228 228 227 227 227 226 225 224 223 223 223 224 224 224 225 225 224 223 221 218 218 218 217 215 215 217 218 218 218 216 215 215 215 214 213 212 212 212 211 210 209 209 210 210 209 209 207 202 196 201 213 220 217 214 211 208 210 211 209 210 205 197 192 189 191 203 215 212
327 327 328 328 328 326 322 317 310 303 296 287 277 268 259 252 245 239 233 228 226 225 224 224 225 224 224 223 222 222 222 222 223 223 223 223 223 223 222 219 218 217 217 216 215 216 217 218 218 217 215 215 216 214 213 213 213 213 212 210 209 209 210 211 210 209 208 206 203 203 211 220 222 218 213 207 205 207 210 216 212 201 197 200 203 206 217 227
330 331 331 332 332 330 325 319 314 307 300 292 281 270 261 253 246 239 233 228 225 223 222 222 222 223 222 221 221 221 221 221 221 222 222 222 222 222 222 220 218 217 217 217 216 215 216 217 218 217 216 216 216 215 214 213 214 214 213 212 211 209 209 211 211 210 211 210 209 208 210 216 221 218 215 211 207 207 211 214 214 210 208 213 218 217 220 229
333 334 335 336 335 332 328 323 317 312 305 297 287 275 264 255 247 240 234 229 225 222 221 221 221 221 221 220 220 220 220 220 221 221 221 221 221 222 222 221 220 218 217 217 217 216 216 218 218 217 216 216 216 216 215 213 214 214 213 213 211 210 210 211 212 211 212 213 211 209 207 209 215 216 215 215 212 208 209 212 215 218 217 221 226 222 221 230
336 337 338 339 338 335 330 325 320 315 309 301 292 282 270 258 248 241 235 230 226 223 221 220 220 220 220 220 220 220 220 220 220 221 221 220 221 221 221 221 221 219 218 217 218 218 217 217 218 218 217 216 216 216 216 214 214 214 214 213 212 211 210 211 212 212 212 213 211 209 207 205 210 214 215 216 215 210 208 209 213 220 223 226 229 222 217 225
339 339 340 341 341 337 332 327 323 318 312 305 298 289 277 264 251 242 235 231 227 224 222 221 220 220 220 219 219 220 220 219 220 220 220 220 220 220 220 221 221 221 220 219 218 219 218 217 217 218 218 217 216 216 217 216 214 214 214 214 213 212 211 210 212 212 211 212 211 209 208 207 208 213 215 217 216 213 211 207 206 214 221 223 224 220 216 219
341 342 343 344 342 338 333 328 324 320 314 308 303 296 285 272 257 244 236 231 227 224 222 221 220 220 219 219 219 219 220 219 220 220 220 220 220 219 220 220 220 221 221 220 220 219 219 218 218 218 218 218 217 217 217 217 216 214 214 214 214 213 212 211 212 213 212 211 211 210 210 210 208 208 212 215 215 213 213 210 203 206 217 220 215 211 214 217
343 344 344 345 343 339 334 329 325 322 317 312 308 303 294 281 264 249 238 232 227 224 222 221 220 220 219 219 219 219 219 219 219 219 220 220 220 219 219 220 220 220 221 221 221 219 219 219 218 218 218 219 218 218 218 218 217 215 213 214 215 214 214 212 211 213 212 211 211 212 212 214 210 205 207 212 214 211 211 213 208 205 213 220 216 209 211 217
345 345 346 346 344 340 335 330 325 322 318 315 312 307 300 289 274 255 241 232 227 224 222 220 220 219 219 218 218 218 219 219 219 219 219 219 220 219 219 219 220 220 221 221 221 220 219 220 219 218 218 219 219 218 218 218 218 216 214 214 215 215 215 214 212 212 213 211 212 213 213 215 213 207 205 208 213 213 211 212 210 209 212 217 219 215 213 219
346 346 346 346 344 340 335 329 324 320 319 316 313 308 302 295 283 264 246 235 228 224 222 220 218 218 217 217 217 217 217 218 218 218 218 219 219 219 219 219 220 220 221 221 221 219 218 219 219 219 218 219 220 219 218 218 218 217 216 215 216 216 216 215 214 212 212 213 213 214 214 215 215 212 208 208 213 217 216 213 211 212 213 215 218 218 218 222
347 347 347 347 344 340 335 329 322 318 317 317 315 311 306 297 289 276 255 240 231 225 222 220 218 216 216 216 215 215 216 216 217 217 217 218 218 218 219 219 219 220 220 220 221 220 218 217 218 218 218 218 219 219 219 219 218 218 218 216 216 217 217 217 216 214 213 214 214 215 216 217 217 216 215 215 219 221 219 216 214 214 215 216 217 219 222 223
348 348 347 347 344 339 334 328 320 316 315 316 314 312 309 301 294 286 264 246 234 227 223 220 219 217 216 216 215 214 214 215 216 216 217 217 217 218 218 218 219 219 219 219 220 219 218 216 216 217 218 218 218 219 220 219 218 218 219 218 217 218 218 217 217 217 215 215 215 215 217 218 219 218 219 220 222 221 218 217 219 217 216 218 217 218 220 221
348 348 348 347 344 339 333 326 318 312 310 312 312 308 305 301 295 285 269 253 237 229 225 221 219 217 217 217 215 214 214 214 215 216 216 217 217 217 218 218 219 219 219 219 219 219 218 216 216 217 217 218 218 218 220 220 218 217 218 219 218 218 219 218 217 218 218 217 216 216 217 219 220 219 220 222 222 219 217 219 223 220 215 216 216 215 216 217
348 348 348 347 344 339 332 324 315 308 303 306 306 300 297 297 292 281 266 254 243 234 228 223 220 218 217 217 216 215 215 215 215 215 216 217 217 218 218 218 219 220 219 219 219 219 218 217 217 217 217 217 217 217 219 219 219 217 217 218 218 217 218 217 216 216 218 218 217 216 217 220 221 219 219 221 220 217 217 219 222 221 215 214 216 214 213 212
349 348 348 347 344 339 332 322 313 305 298 297 298 292 286 282 279 273 260 252 249 241 233 227 223 219 217 216 216 216 215 215 215 216 216 216 217 218 218 219 219 220 219 219 218 218 218 217 217 218 217 217 217 217 218 219 219 218 217 218 218 218 218 218 216 215 216 218 217 216 217 220 221 219 218 220 219 216 217 219 218 217 216 215 215 215 214 212
348 348 348 347 344 339 333 322 311 303 294 288 291 287 277 266 256 254 249 243 246 247 242 235 228 223 220 217 216 216 216 216 216 216 216 216 217 217 218 219 219 219 219 218 218 218 218 217 217 218 217 217 217 217 217 219 219 218 218 218 218 219 219 218 218 216 216 218 219 218 218 220 221 219 219 221 220 217 216 218 216 214 214 216 215 214 214 212
348 348 348 347 344 339 333 324 311 302 290 281 282 280 271 262 251 245 241 239 242 244 244 241 234 229 225 221 218 217 217 216 216 216 217 217 217 217 218 218 219 219 219 218 218 218 218 217 217 218 218 217 217 217 217 218 219 219 218 218 218 219 219 219 218 218 217 217 219 219 220 222 222 221 220 221 221 219 217 217 217 214 213 214 215 213 210 209
347 348 348 346 343 338 333 325 311 300 287 275 274 272 265 259 252 247 243 242 245 246 246 244 240 235 230 226 222 219 217 217 216 217 217 217 217 217 217 218 218 218 218 218 217 217 217 217 218 218 218 218 217 217 217 218 219 219 218 219 219 219 219 220 219 219 218 217 218 219 221 223 223 222 222 222 222 221 218 217 217 217 216 214 215 214 209 205
346 347 347 346 343 338 332 324 312 299 284 271 267 266 261 256 251 249 247 246 247 248 247 246 243 239 234 230 227 223 220 218 217 217 217 217 218 217 217 217 218 217 217 217 217 217 217 217 217 218 219 219 218 217 217 217 218 218 218 219 220 219 220 220 220 219 218 217 217 218 220 222 224 223 222 223 223 222 221 218 217 218 218 215 215 216 212 207
345 346 347 346 343 338 332 324 312 300 284 268 262 260 258 254 251 250 251 250 251 251 250 249 247 243 239 234 230 227 224 220 218 218 217 217 218 218 218 218 218 217 217 217 216 217 217 217 217 218 219 219 219 218 217 217 218 218 218 219 220 219 220 221 221 220 220 218 218 218 219 221 223 224 223 223 223 223 222 220 218 219 219 217 216 216 215 211
345 346 346 345 343 338 333 325 313 303 288 270 261 259 258 256 253 252 253 254 255 255 256 255 253 250 245 240 233 229 227 224 221 218 217 217 217 218 218 218 218 218 217 217 217 217 217 217 217 218 219 220 220 219 218 217 218 218 218 218 219 219 219 220 220 221 221 220 219 219 219 221 223 224 223 224 224 225 224 222 220 219 220 220 219 218 217 215
344 345 345 345 342 337 332 326 314 303 291 273 263 259 257 257 255 254 256 258 258 259 259 259 258 255 252 248 241 233 228 227 225 221 219 218 217 217 218 219 219 218 218 217 217 217 218 218 218 218 219 220 220 220 219 218 218 218 218 218 218 218 219 220 220 220 220 220 220 220 220 221 223 224 223 224 225 226 226 225 223 221 221 222 221 220 219 219
343 344 344 344 341 336 332 327 315 301 290 276 265 259 257 258 259 258 258 260 262 263 262 261 260 258 255 252 248 241 232 227 226 225 222 219 218 218 218 218 219 219 219 218 218 218 218 218 218 218 219 219 220 220 220 220 219 219 219 218 218 218 219 220 220 220 220 220 220 220 221 222 223 224 224 224 225 227 227 227 226 224 223 223 222 222 222 221
342 343 344 343 340 335 331 328 317 304 294 280 268 261 259 262 262 260 260 262 266 268 268 267 263 259 255 252 249 245 238 230 225 225 224 222 220 219 218 218 219 219 219 219 219 219 219 219 219 218 219 219 220 220 220 221 220 220 219 219 218 218 218 219 220 220 221 221 221 221 221 223 224 224 223 224 225 226 227 227 227 227 226 225 223 223 223 224
341 342 343 342 339 333 330 328 319 307 296 281 268 260 259 262 262 260 260 265 271 276 277 276 273 268 261 253 246 243 239 233 226 223 223 223 222 221 219 219 219 219 220 220 220 220 220 220 219 219 219 219 220 220 221 221 221 221 220 219 219 218 218 219 220 220 221 221 222 222 222 223 225 224 224 224 225 226 227 228 228 227 227 227 225 224 224 225
340 342 342 341 338 332 328 327 320 306 292 276 266 260 259 262 263 262 262 266 276 284 287 287 285 282 273 260 248 240 235 233 228 223 221 221 222 222 221 220 220 219 220 220 221 221 221 221 221 221 220 220 221 221 221 221 222 222 222 221 220 219 219 219 220 220 221 221 222 222 222 223 225 225 224 225 226 227 228 228 228 228 228 227 227 226 225 225
340 341 341 340 337 331 326 324 318 301 284 270 265 262 261 263 264 264 264 268 277 290 296 297 296 294 287 271 254 242 233 229 228 225 221 219 219 221 221 221 221 221 220 221 221 222 222 222 222 222 221 221 222 222 222 222 222 223 223 222 221 220 219 219 219 220 220 221 222 222 222 223 225 225 224 225 226 226 227 229 230 230 229 229 228 227 226 226
339 340 340 338 336 330 324 322 316 299 280 269 265 263 263 264 266 267 269 272 279 292 302 306 307 305 300 284 263 248 235 228 225 225 223 219 218 219 220 220 220 221 221 221 221 222 223 223 223 223 222 222 223 223 223 223 223 223 223 223 223 221 220 219 219 220 220 221 222 223 223 224 225 225 225 225 226 226 227 228 230 230 231 231 230 229 228 228
338 339 339 337 334 329 323 320 313 299 283 273 265 262 263 266 268 271 274 276 282 294 304 312 316 317 314 300 275 256 241 229 224 223 223 221 219 218 218 219 219 220 221 221 222 222 223 224 224 224 223 223 223 223 224 224 223 224 224 224 224 223 222 220 220 220 220 221 222 222 224 225 225 226 226 226 226 227 227 227 229 230 231 232 232 232 231 230
337 338 337 335 332 328 322 318 312 300 287 279 268 260 262 265 269 273 277 280 287 297 305 313 321 326 326 316 290 266 250 234 225 222 221 222 221 219 218 218 219 219 220 221 221 222 223 224 224 224 224 224 224 224 224 224 224 224 224 224 224 224 223 222 221 220 220 220 221 222 223 225 226 226 227 226 226 227 227 227 228 229 229 230 232 233 233 232
336 337 336 334 330 326 321 316 311 301 290 283 273 262 261 264 268 274 279 285 292 300 306 312 320 330 334 329 308 280 262 244 230 223 221 221 221 221 219 218 218 219 219 220 221 222 223 224 225 225 225 224 225 225 225 225 225 225 225 224 224 224 224 223 222 221 220 221 221 221 222 224 225 227 227 227 227 227 227 227 228 228 229 229 230 232 233 234
336 336 335 332 328 324 320 315 310 301 292 285 276 266 263 263 265 271 279 286 295 302 307 313 321 330 339 339 324 294 274 257 240 229 223 221 221 221 221 219 218 219 219 219 220 221 222 224 224 225 225 225 225 225 225 225 225 225 226 225 225 225 225 224 224 222 221 221 221 222 222 223 224 226 227 228 228 228 228 228 228 228 229 229 230 231 232 233
Height
10913 10912 10912 10911 10910 10910 10909 10909 10909 10908 10908 10908 10907 10907 10907 10907 10907 10907 10908 10908 10909 10909 10910 10912 10914 10916 10918 10920 10923 10925 10928 10930 10933 10936 10938 10940 10944 10947 10950 10953 10956 10960 10964 10967 10971 10973 10976 10980 10983 10987 10990 10993 10996 10998 11000 11001 11003 11004 11006 11007 11008 11009 11010 11011 11012 11013 11014 11015 11016 11017 11017 11017 11017 11017 11017 11016 11015 11015 11015 11014 11013 11012 11011 11009 11009 11008 11006 11004
10910 10910 10909 10909 10908 10907 10907 10906 10906 10905 10905 10905 10904 10904 10904 10904 10904 10904 10905 10905 10906 10906 10907 10908 10910 10912 10914 10917 10919 10921 10924 10926 10929 10932 10934 10937 10940 10943 10946 10949 10952 10957 10960 10964 10967 10969 10973 10977 10981 10985 10988 10991 10994 10996 10998 10999 11001 11003 11005 11006 11007 11007 11009 11010 11011 11013 11013 11014 11015 11016 11017 11017 11018 11017 11017 11016 11015 11015 11015 11014 11014 11013 11012 11010 11010 11009 11007 11005
10907 10907 10906 10905 10905 10904 10903 10903 10902 10902 10902 10901 10901 10901 10901 10901 10901 10902 10902 10902 10903 10903 10904 10904 10906 10907 10910 10913 10915 10917 10920 10922 10926 10928 10929 10933 10936 10939 10943 10945 10948 10953 10956 10960 10963 10966 10970 10974 10979 10983 10986 10989 10991 10994 10996 10997 10999 11001 11003 11004 11005 11006 11008 11009 11010 11012 11012 11013 11015 11015 11016 11017 11017 11017 11016 11016 11016 11016 11016 11015 11015 11015 11013 11012 11011 11010 11008 11006
10904 10903 10902 10902 10901 10900 10900 10899 10898 10897 10897 10897 10897 10897 10898 10898 10898 10898 10898 10898 10899 10900 10901 10901 10902 10903 10905 10908 10910 10913 10915 10919 10922 10923 10926 10930 10932 10935 10939 10942 10944 10948 10952 10955 10959 10963 10968 10972 10976 10980 10983 10986 10989 10991 10993 10995 10997 10999 11001 11003 11004 11006 11007 11009 11010 11011 11012 11013 11014 11014 11015 11016 11016 11016 11016 11016 11016 11016 11016 11016 11016 11016 11014 11013 11012 11011 11009 11007
10901 10900 10899 10897 10897 10896 10895 10894 10893 10892 10892 10892 10892 10893 10894 10894 10894 10894 10894 10894 10895 10896 10897 10898 10898 10899 10901 10903 10905 10908 10911 10915 10917 10919 10922 10925 10928 10931 10934 10938 10940 10944 10948 10952 10956 10961 10965 10969 10973 10977 10980 10983 10986 10988 10991 10993 10996 10998 11000 11001 11003 11006 11008 11009 11009 11010 11011 11012 11013 11013 11014 11015 11016 11016 11016 11016 11016 11016 11017 11017 11017 11016 11015 11014 11013 11011 11010 11008
10897 10895 10894 10893 10892 10891 10890 10889 10888 10887 10887 10886 10886 10887 10888 10889 10890 10890 10890 10890 10890 10891 10893 10894 10894 10895 10896 10898 10900 10903 10907 10910 10912 10914 10917 10920 10923 10927 10930 10933 10936 10939 10943 10948 10952 10957 10961 10966 10970 10974 10977 10980 10983 10986 10988 10991 10993 10996 10998 11000 11002 11006 11007 11008 11009 11010 11011 11011 11012 11013 11014 11015 11016 11016 11016 11016 11016 11016 11017 11017 11018 11017 11016 11015 11014 11012 11010 11009
10893 10891 10889 10888 10887 10886 10885 10884 10883 10882 10881 10880 10880 10880 10882 10883 10884 10885 10885 10885 10885 10886 10888 10889 10890 10891 10892 10893 10896 10898 10902 10905 10907 10910 10913 10915 10919 10922 10925 10929 10931 10934 10939 10943 10948 10953 10958 10963 10967 10971 10974 10978 10980 10983 10986 10989 10991 10994 10996 10998 11001 11003 11004 11005 11007 11009 11010 11011 11012 11013 11014 11015 11016 11016 11016 11016 11016 11016 11017 11017 11018 11017 11016 11015 11014 11013 11011 11009
10888 10887 10885 10883 10881 10880 10878 10877 10876 10875 10875 10874 10874 10873 10874 10875 10877 10878 10879 10880 10880 10881 10883 10884 10885 10886 10887 10889 10891 10893 10896 10899 10902 10905 10908 10910 10914 10917 10920 10924 10927 10930 10934 10939 10945 10950 10955 10960 10964 10968 10971 10974 10977 10980 10982 10986 10989 10992 10994 10995 10997 10999 11000 11002 11005 11007 11009 11011 11012 11013 11014 11015 11016 11016 11016 11016 11016 11016 11017 11017 11017 11017 11017 11016 11015 11013 11011 11010
10884 10882 10880 10877 10875 10873 10872 10870 10869 10868 10867 10867 10866 10866 10866 10867 10869 10870 10872 10874 10874 10875 10877 10879 10880 10881 10882 10884 10886 10889 10891 10893 10896 10899 10903 10905 10909 10913 10915 10919 10923 10925 10930 10935 10940 10946 10951 10956 10961 10964 10967 10971 10973 10976 10979 10983 10986 10989 10991 10993 10995 10997 10998 11001 11003 11006 11008 11010 11011 11013 11014 11015 11015 11016 11016 11016 11016 11016 11017 11017 11017 11017 11017 11016 11015 11014 11012 11011
10879 10876 10874 10872 10869 10867 10865 10862 10861 10860 10859 10858 10858 10858 10858 10859 10860 10861 10864 10866 10868 10869 10871 10873 10874 10875 10876 10878 10881 10883 10885 10888 10891 10894 10897 10900 10904 10907 10910 10914 10918 10921 10925 10930 10936 10942 10948 10953 10956 10959 10963 10966 10969 10973 10976 10981 10984 10986 10988 10990 10993 10995 10997 10999 11002 11005 11007 11009 11010 11012 11012 11014 11015 11015 11015 11016 11016 11016 11016 11016 11017 11017 11017 11016 11016 11015 11013 11012
10872 10870 10867 10865 10862 10860 10857 10855 10852 10851 10850 10849 10849 10849 10849 10850 10851 10852 10854 10857 10860 10862 10864 10866 10867 10869 10870 10872 10875 10878 10880 10882 10885 10888 10892 10895 10899 10902 10906 10910 10914 10917 10920 10926 10932 10938 10945 10949 10950 10954 10959 10962 10966 10969 10973 10978 10981 10983 10985 10988 10991 10993 10995 10998 11001 11004 11006 11008 11010 11011 11012 11013 11014 11014 11015 11015 11016 11016 11016 11016 11017 11017 11017 11017 11016 11016 11014 11013
10866 10863 10860 10857 10854 10852 10849 10847 10844 10841 10840 10839 10839 10840 10840 10840 10841 10843 10845 10847 10851 10854 10857 10858 10860 10862 10864 10866 10870 10873 10874 10876 10879 10882 10886 10890 10894 10897 10901 10905 10909 10912 10916 10922 10928 10934 10939 10942 10945 10950 10954 10959 10963 10966 10970 10974 10977 10980 10983 10986 10989 10991 10993 10996 10999 11002 11004 11006 11009 11010 11011 11012 11013 11014 11015 11015 11016 11016 11016 11017 11017 11017 11017 11017 11017 11016 11015 11014
10859 10855 10851 10848 10845 10842 10840 10837 10835 10832 10830 10829 10829 10829 10830 10831 10832 10833 10834 10837 10842 10846 10849 10850 10853 10855 10857 10861 10864 10865 10867 10870 10873 10877 10881 10885 10889 10893 10896 10900 10904 10907 10912 10918 10924 10929 10932 10936 10941 10945 10950 10955 10959 10961 10965 10970 10974 10977 10980 10983 10986 10988 10991 10994 10998 11001 11003 11006 11007 11008 11008 11010 11012 11013 11014 11015 11015 11015 11016 11017 11017 11017 11017 11017 11017 11017 11016 11015
10851 10847 10843 10839 10835 10832 10829 10827 10824 10822 10819 10818 10818 10818 10819 10820 10821 10822 10824 10827 10832 10837 10840 10843 10845 10847 10850 10854 10856 10857 10860 10864 10868 10872 10876 10880 10884 10888 10892 10896 10899 10903 10908 10914 10919 10922 10925 10930 10934 10939 10946 10950 10953 10956 10961 10966 10971 10974 10977 10980 10983 10986 10989 10992 10996 11000 11002 11005 11006 11006 11007 11009 11011 11012 11013 11014 11015 11015 11015 11016 11017 11017 11018 11018 11018 11017 11017 11016
10843 10838 10833 10829 10825 10821 10818 10815 10813 10810 10807 10806 10806 10806 10807 10808 10810 10811 10813 10817 10822 10826 10831 10834 10837 10839 10842 10845 10847 10850 10854 10859 10863 10867 10871 10875 10878 10882 10887 10891 10895 10899 10904 10909 10914 10917 10920 10924 10928 10934 10940 10943 10947 10952 10956 10961 10966 10969 10973 10977 10980 10983 10987 10991 10995 10999 11001 11003 11005 11005 11005 11007 11009 11011 11012 11013 11014 11014 11015 11016 11016 11017 11018 11018 11018 11018 11017 11017
10834 10829 10824 10819 10814 10810 10806 10803 10800 10797 10795 10793 10793 10793 10794 10795 10796 10799 10802 10807 10811 10815 10820 10824 10827 10829 10832 10836 10839 10843 10849 10854 10858 10861 10865 10869 10872 10876 10881 10886 10889 10894 10898 10903 10908 10911 10914 10918 10924 10930 10934 10938 10943 10947 10951 10956 10961 10964 10968 10973 10977 10981 10984 10989 10993 10996 10999 11001 11003 11003 11004 11006 11008 11009 11011 11012 11013 11014 11014 11015 11016 11017 11017 11017 11018 11018 11018 11017
10825 10820 10814 10808 10803 10798 10793 10789 10786 10783 10780 10779 10778 10778 10779 10779 10781 10785 10790 10795 10799 10803 10808 10813 10816 10819 10823 10827 10832 10838 10843 10847 10850 10854 10858 10862 10865 10869 10874 10879 10883 10888 10892 10897 10902 10905 10908 10914 10920 10924 10929 10934 10939 10942 10946 10949 10953 10958 10964 10969 10974 10978 10982 10987 10990 10993 10997 10999 11000 11001 11003 11004 11006 11007 11009 11010 11012 11013 11013 11014 11015 11016 11017 11017 11018 11018 11018 11017
10816 10810 10803 10797 10791 10785 10780 10775 10771 10768 10765 10763 10762 10762 10762 10763 10766 10770 10776 10781 10786 10791 10796 10801 10806 10809 10813 10818 10824 10831 10835 10838 10842 10846 10850 10854 10858 10863 10867 10871 10876 10882 10886 10891 10895 10898 10903 10909 10914 10918 10924 10930 10934 10935 10938 10943 10949 10955 10961 10966 10971 10975 10980 10985 10988 10990 10994 10996 10998 10998 11000 11002 11003 11005 11007 11009 11010 11011 11012 11013 11014 11016 11016 11017 11018 11018 11017 11018
10807 10800 10793 10786 10779 10773 10767 10761 10756 10752 10749 10746 10745 10745 10745 10747 10750 10755 10761 10767 10772 10778 10783 10789 10794 10799 10803 10809 10815 10821 10824 10828 10833 10838 10842 10847 10852 10857 10860 10865 10870 10875 10879 10884 10888 10892 10897 10902 10908 10912 10917 10921 10923 10927 10933 10942 10948 10952 10956 10961 10967 10972 10977 10982 10984 10986 10990 10993 10995 10995 10997 10999 11001 11003 11006 11008 11009 11010 11011 11012 11013 11014 11015 11016 11017 11017 11017 11017
10798 10791 10783 10775 10768 10760 10754 10747 10742 10737 10734 10731 10729 10729 10730 10731 10735 10739 10745 10752 10758 10764 10770 10776 10782 10787 10793 10799 10805 10810 10814 10819 10825 10830 10834 10840 10845 10850 10854 10859 10864 10868 10873 10877 10881 10885 10890 10896 10901 10903 10906 10910 10915 10922 10932 10940 10943 10946 10951 10958 10964 10968 10972 10977 10979 10981 10986 10990 10992 10992 10994 10997 11000 11003 11005 11006 11008 11009 11010 11011 11012 11013 11014 11015 11016 11017 11017 11017
10789 10781 10773 10765 10757 10749 10741 10735 10729 10724 10721 10719 10717 10716 10717 10718 10721 10726 10731 10737 10744 10750 10757 10764 10770 10777 10783 10790 10795 10800 10805 10811 10817 10821 10827 10832 10837 10842 10847 10853 10858 10862 10866 10871 10875 10879 10884 10889 10891 10893 10899 10905 10912 10921 10929 10935 10938 10942 10947 10954 10960 10964 10968 10972 10974 10977 10982 10986 10989 10990 10992 10995 10999 11001 11003 11005 11006 11007 11008 11009 11011 11012 11013 11015 11016 11016 11017 11017
10781 10773 10764 10756 10747 10738 10731 10724 10719 10714 10711 10709 10707 10706 10706 10708 10710 10714 10719 10725 10731 10738 10745 10752 10759 10766 10773 10779 10785 10790 10796 10801 10807 10812 10818 10824 10829 10834 10840 10846 10851 10855 10859 10864 10868 10873 10877 10879 10881 10888 10897 10903 10909 10916 10923 10929 10934 10938 10943 10950 10955 10960 10964 10966 10968 10972 10976 10980 10984 10987 10990 10993 10996 10998 11000 11002 11004 11006 11007 11008 11009 11010 11012 11013 11015 11016 11016 11017
10773 10764 10756 10747 10738 10729 10721 10715 10710 10706 10703 10701 10699 10698 10698 10699 10701 10704 10709 10714 10720 10726 10734 10741 10747 10753 10760 10768 10774 10780 10786 10792 10798 10803 10809 10816 10821 10828 10834 10839 10843 10848 10852 10857 10861 10865 10866 10869 10875 10885 10893 10898 10903 10910 10917 10923 10928 10933 10939 10945 10951 10956 10959 10960 10963 10967 10971 10975 10981 10985 10987 10990 10992 10995 10998 11000 11002 11004 11005 11007 11008 11009 11010 11012 11014 11015 11015 11016
10765 10757 10748 10739 10730 10721 10714 10708 10704 10700 10697 10694 10693 10692 10691 10692 10694 10697 10700 10704 10710 10716 10722 10728 10735 10742 10751 10759 10765 10772 10778 10785 10790 10796 10802 10808 10815 10821 10826 10832 10837 10841 10845 10850 10854 10857 10859 10864 10873 10881 10887 10892 10898 10904 10910 10917 10922 10928 10934 10941 10947 10951 10953 10955 10959 10963 10967 10972 10977 10982 10984 10986 10989 10992 10995 10999 11001 11002 11004 11005 11007 11008 11009 11011 11012 11014 11015 11015
10759 10750 10741 10732 10723 10714 10708 10703 10698 10695 10692 10690 10688 10687 10686 10687 10688 10690 10693 10697 10701 10706 10712 10719 10726 10734 10743 10751 10758 10764 10770 10776 10782 10788 10794 10801 10807 10814 10820 10826 10830 10834 10839 10843 10847 10851 10855 10862 10870 10875 10881 10887 10893 10898 10904 10910 10916 10923 10929 10936 10941 10945 10948 10951 10954 10958 10962 10967 10972 10977 10981 10984 10986 10989 10993 10996 10998 11000 11002 11004 11005 11006 11008 11009 11011 11012 11013 11014
10753 10744 10735 10726 10717 10709 10703 10698 10694 10691 10688 10686 10685 10683 10683 10682 10683 10685 10687 10690 10694 10698 10704 10710 10717 10725 10734 10742 10749 10755 10761 10768 10774 10780 10787 10793 10800 10807 10813 10819 10823 10828 10833 10838 10842 10846 10852 10859 10863 10869 10875 10882 10888 10894 10898 10904 10911 10917 10924 10929 10933 10937 10941 10944 10947 10951 10956 10963 10969 10973 10977 10980 10983 10987 10990 10993 10996 10998 11000 11001 11003 11005 11006 11007 11009 11011 11012 11013
10747 10738 10729 10720 10712 10704 10699 10694 10691 10688 10686 10683 10682 10681 10680 10679 10679 10681 10682 10684 10688 10692 10696 10702 10709 10716 10724 10732 10740 10747 10753 10760 10766 10772 10780 10787 10793 10800 10806 10811 10817 10822 10827 10832 10836 10842 10848 10853 10857 10863 10870 10876 10883 10889 10893 10897 10903 10911 10917 10921 10925 10930 10934 10938 10943 10947 10953 10960 10965 10968 10972 10975 10979 10984 10987 10990 10993 10994 10996 10999 11001 11003 11005 11006 11007 11009 11010 11012
10742 10733 10724 10715 10707 10700 10695 10691 10688 10685 10683 10681 10680 10678 10677 10677 10677 10677 10678 10680 10683 10686 10690 10695 10700 10707 10714 10723 10731 10738 10744 10751 10758 10766 10773 10779 10786 10792 10798 10804 10810 10815 10821 10826 10831 10837 10842 10846 10852 10859 10865 10872 10877 10882 10886 10890 10896 10903 10909 10913 10918 10923 10927 10933 10938 10942 10948 10955 10959 10963 10967 10970 10975 10980 10982 10986 10988 10990 10993 10996 10999 11001 11003 11004 11005 11007 11008 11010
10737 10729 10720 10711 10703 10697 10692 10688 10685 10683 10681 10679 10678 10677 10676 10675 10675 10675 10676 10677 10678 10681 10684 10688 10693 10699 10706 10714 10721 10728 10735 10742 10751 10758 10765 10772 10778 10785 10791 10797 10803 10809 10814 10819 10824 10830 10835 10841 10849 10855 10861 10866 10869 10873 10879 10883 10888 10895 10901 10906 10910 10915 10921 10927 10932 10937 10944 10950 10953 10957 10961 10965 10971 10975 10978 10981 10985 10988 10991 10994 10997 10999 11000 11002 11003 11005 11007 11008
10733 10725 10716 10708 10700 10694 10689 10685 10683 10681 10679 10678 10676 10675 10674 10674 10673 10673 10674 10674 10675 10677 10680 10683 10687 10692 10698 10704 10712 10719 10727 10735 10742 10749 10757 10763 10770 10777 10784 10790 10797 10803 10807 10811 10816 10823 10830 10838 10845 10850 10854 10857 10860 10865 10872 10876 10882 10888 10894 10900 10904 10909 10915 10921 10927 10934 10942 10946 10948 10953 10957 10961 10966 10970 10974 10978 10982 10986 10989 10991 10994 10995 10997 10999 11001 11003 11005 11006
10730 10721 10713 10704 10697 10691 10687 10683 10680 10678 10677 10676 10675 10674 10673 10673 10672 10672 10672 10672 10673 10675 10676 10679 10682 10686 10691 10696 10703 10711 10718 10726 10733 10741 10748 10755 10762 10769 10775 10782 10789 10794 10798 10803 10810 10817 10824 10831 10837 10842 10845 10847 10851 10857 10863 10869 10877 10883 10889 10895 10899 10904 10910 10916 10925 10933 10939 10941 10944 10950 10953 10957 10961 10965 10971 10975 10978 10982 10985 10987 10990 10992 10995 10997 10999 11001 11002 11004
10726 10718 10710 10702 10694 10688 10684 10681 10678 10676 10675 10674 10673 10672 10672 10671 10671 10671 10671 10671 10672 10672 10673 10675 10679 10682 10686 10690 10696 10703 10710 10717 10724 10731 10738 10746 10753 10759 10765 10772 10779 10784 10788 10794 10801 10809 10816 10824 10829 10831 10833 10837 10843 10850 10856 10863 10871 10877 10884 10889 10894 10900 10905 10914 10923 10930 10934 10936 10940 10946 10949 10952 10956 10961 10967 10971 10974 10978 10980 10983 10986 10989 10993 10995 10996 10998 11000 11001
10722 10714 10706 10699 10692 10686 10682 10679 10676 10674 10673 10672 10671 10671 10670 10670 10670 10670 10669 10669 10670 10670 10671 10673 10676 10679 10683 10687 10692 10698 10703 10710 10716 10723 10730 10738 10744 10751 10757 10764 10770 10775 10780 10787 10794 10801 10809 10816 10818 10820 10824 10830 10837 10844 10850 10856 10863 10871 10878 10882 10887 10894 10900 10910 10918 10924 10927 10930 10935 10939 10943 10947 10951 10957 10963 10965 10968 10973 10975 10978 10981 10985 10989 10991 10993 10995 10996 10998
10719 10711 10703 10696 10689 10684 10679 10676 10674 10672 10671 10671 10670 10669 10669 10668 10668 10668 10668 10668 10668 10669 10670 10672 10674 10677 10680 10683 10688 10693 10698 10704 10710 10717 10724 10730 10737 10743 10750 10757 10763 10768 10774 10781 10788 10795 10802 10808 10809 10811 10817 10823 10830 10836 10840 10845 10852 10861 10867 10871 10878 10886 10892 10899 10907 10912 10915 10918 10925 10932 10938 10942 10944 10950 10955 10958 10962 10967 10970 10973 10976 10980 10984 10987 10988 10991 10993 10994
10716 10708 10700 10693 10686 10681 10677 10674 10671 10670 10669 10668 10668 10668 10667 10667 10667 10667 10667 10667 10667 10668 10669 10670 10672 10674 10677 10680 10683 10687 10692 10698 10704 10710 10716 10723 10730 10736 10743 10750 10755 10761 10767 10774 10781 10787 10793 10799 10801 10804 10811 10817 10821 10826 10831 10836 10844 10853 10859 10865 10873 10880 10884 10889 10895 10900 10903 10909 10918 10927 10933 10934 10934 10940 10947 10951 10957 10961 10965 10969 10971 10975 10978 10981 10984 10987 10989 10991
10713 10705 10697 10690 10683 10678 10675 10671 10669 10667 10666 10665 10665 10665 10665 10666 10666 10666 10667 10667 10667 10667 10668 10669 10671 10672 10674 10677 10680 10683 10687 10692 10697 10703 10709 10715 10722 10729 10736 10742 10747 10753 10760 10766 10773 10779 10784 10789 10793 10797 10804 10809 10813 10818 10825 10830 10837 10846 10854 10862 10869 10873 10875 10880 10885 10892 10898 10907 10915 10923 10927 10925 10927 10935 10942 10946 10951 10956 10959 10963 10966 10970 10973 10976 10980 10984 10986 10988
10709 10702 10694 10686 10680 10675 10672 10669 10667 10665 10664 10663 10663 10663 10663 10663 10664 10665 10665 10665 10666 10666 10667 10668 10669 10671 10672 10674 10677 10680 10683 10687 10692 10696 10702 10708 10714 10721 10727 10733 10739 10746 10752 10758 10765 10771 10776 10781 10785 10790 10795 10800 10805 10812 10818 10824 10830 10840 10850 10855 10857 10860 10865 10871 10877 10885 10895 10904 10911 10917 10920 10919 10924 10933 10938 10940 10945 10950 10953 10956 10960 10964 10967 10971 10975 10979 10981 10983
10706 10698 10691 10683 10677 10672 10669 10666 10664 10662 10661 10661 10660 10660 10660 10661 10662 10662 10663 10663 10664 10665 10665 10666 10668 10669 10670 10672 10674 10676 10678 10682 10686 10690 10695 10701 10707 10714 10719 10725 10731 10737 10744 10750 10755 10762 10767 10771 10777 10782 10787 10792 10798 10804 10810 10817 10825 10834 10841 10843 10846 10853 10861 10867 10874 10882 10892 10900 10904 10909 10912 10914 10919 10926 10930 10933 10938 10942 10946 10950 10954 10958 10962 10966 10970 10973 10976 10978
10702 10695 10688 10681 10674 10669 10666 10663 10662 10660 10659 10658 10658 10658 10658 10659 10659 10659 10660 10661 10662 10663 10663 10664 10665 10666 10668 10669 10671 10673 10675 10678 10681 10685 10689 10695 10700 10706 10711 10717 10723 10728 10734 10739 10745 10752 10757 10762 10770 10775 10779 10784 10790 10797 10804 10812 10819 10825 10831 10835 10841 10850 10857 10861 10869 10876 10883 10890 10895 10900 10904 10907 10912 10917 10921 10926 10931 10935 10939 10944 10948 10952 10956 10961 10965 10968 10971 10973
10698 10691 10684 10677 10671 10667 10663 10661 10659 10657 10656 10656 10655 10655 10656 10656 10657 10657 10657 10658 10659 10660 10660 10661 10662 10663 10664 10666 10667 10669 10671 10674 10676 10680 10684 10689 10694 10698 10703 10708 10713 10718 10724 10729 10736 10742 10747 10754 10762 10767 10771 10776 10782 10790 10798 10805 10810 10816 10822 10829 10836 10844 10850 10856 10863 10870 10876 10883 10888 10892 10898 10901 10902 10906 10913 10919 10923 10927 10932 10937 10941 10945 10950 10954 10958 10962 10965 10968
10694 10687 10681 10674 10668 10663 10660 10657 10656 10654 10653 10652 10652 10653 10653 10654 10654 10654 10655 10655 10656 10656 10656 10657 10658 10659 10660 10661 10663 10665 10667 10669 10672 10675 10679 10683 10687 10690 10695 10700 10705 10710 10715 10721 10727 10733 10738 10745 10753 10759 10763 10768 10775 10783 10791 10796 10801 10807 10814 10820 10827 10835 10842 10848 10856 10864 10871 10877 10882 10887 10892 10893 10893 10898 10906 10912 10916 10920 10924 10928 10933 10938 10942 10947 10951 10955 10960 10963
10690 10683 10677 10671 10665 10660 10657 10654 10652 10651 10650 10649 10649 10650 10650 10651 10651 10652 10652 10652 10652 10652 10652 10652 10653 10654 10655 10656 10658 10660 10663 10665 10667 10670 10673 10677 10680 10683 10687 10692 10697 10702 10708 10713 10719 10724 10730 10737 10744 10750 10754 10760 10768 10776 10782 10787 10792 10798 10805 10812 10820 10828 10834 10841 10850 10857 10861 10867 10873 10879 10882 10884 10885 10892 10900 10906 10910 10913 10917 10921 10927 10931 10935 10939 10944 10949 10954 10958
10687 10680 10673 10667 10661 10657 10654 10652 10650 10648 10647 10646 10646 10647 10647 10647 10648 10649 10649 10648 10648 10648 10648 10648 10648 10649 10649 10650 10652 10655 10657 10660 10662 10665 10668 10670 10673 10677 10681 10685 10690 10695 10700 10706 10711 10717 10722 10728 10733 10740 10746 10753 10760 10766 10772 10778 10784 10791 10798 10805 10814 10822 10829 10836 10843 10847 10851 10858 10864 10869 10874 10877 10880 10885 10893 10899 10903 10905 10909 10914 10919 10924 10928 10932 10938 10942 10947 10951
10683 10676 10669 10663 10657 10653 10650 10648 10647 10645 10644 10643 10643 10644 10644 10644 10646 10646 10646 10645 10644 10643 10643 10643 10643 10643 10644 10644 10646 10648 10651 10654 10657 10659 10662 10664 10667 10671 10675 10679 10683 10687 10692 10698 10704 10709 10714 10718 10724 10731 10738 10744 10750 10757 10764 10770 10777 10783 10791 10799 10808 10815 10822 10828 10833 10838 10844 10852 10857 10862 10868 10870 10872 10877 10885 10891 10894 10896 10900 10907 10912 10916 10921 10925 10930 10935 10939 10943
10679 10672 10665 10659 10654 10649 10646 10645 10643 10642 10641 10641 10640 10641 10641 10641 10643 10643 10643 10642 10641 10639 10639 10638 10638 10638 10637 10638 10639 10641 10644 10647 10650 10653 10655 10658 10661 10665 10668 10672 10676 10680 10685 10690 10696 10702 10706 10710 10716 10723 10729 10735 10742 10749 10756 10763 10770 10777 10785 10794 10801 10808 10814 10820 10825 10831 10839 10845 10850 10856 10861 10862 10864 10871 10878 10883 10886 10889 10894 10899 10903 10907 10912 10917 10922 10927 10931 10934
10675 10668 10662 10656 10651 10646 10643 10642 10641 10639 10638 10637 10637 10638 10639 10638 10639 10640 10640 10639 10638 10636 10634 10633 10633 10632 10631 10631 10632 10634 10636 10639 10642 10645 10648 10651 10655 10658 10661 10666 10669 10674 10679 10684 10689 10694 10698 10703 10709 10715 10722 10728 10735 10742 10749 10757 10764 10770 10778 10785 10793 10800 10806 10812 10819 10826 10832 10836 10841 10847 10852 10854 10856 10862 10868 10872 10877 10882 10886 10890 10894 10899 10904 10908 10913 10918 10923 10926
10671 10664 10658 10653 10648 10643 10640 10638 10638 10637 10635 10634 10634 10635 10635 10635 10636 10637 10636 10636 10635 10633 10631 10629 10628 10628 10626 10626 10626 10627 10629 10631 10634 10637 10641 10644 10647 10650 10654 10659 10663 10668 10672 10677 10682 10687 10691 10696 10702 10708 10715 10722 10729 10736 10743 10750 10756 10762 10769 10776 10783 10791 10798 10805 10812 10818 10823 10828 10833 10838 10842 10845 10847 10852 10858 10863 10868 10873 10878 10883 10887 10892 10897 10901 10906 10910 10915 10918
10666 10660 10654 10649 10645 10640 10637 10635 10634 10633 10632 10632 10632 10632 10632 10632 10633 10633 10633 10632 10631 10630 10628 10626 10624 10623 10622 10621 10620 10621 10622 10625 10627 10629 10633 10637 10640 10643 10647 10651 10656 10661 10666 10671 10676 10680 10684 10689 10694 10701 10708 10716 10723 10730 10736 10743 10749 10755 10761 10768 10774 10782 10790 10797 10803 10808 10814 10820 10824 10828 10833 10836 10840 10844 10850 10856 10860 10865 10870 10875 10880 10885 10890 10894 10898 10902 10907 10911
10662 10655 10649 10645 10641 10638 10634 10631 10630 10629 10629 10628 10629 10629 10628 10628 10629 10629 10629 10628 10628 10627 10625 10623 10621 10619 10618 10617 10616 10616 10616 10618 10620 10622 10625 10629 10633 10636 10640 10645 10649 10654 10659 10664 10669 10673 10677 10682 10688 10695 10702 10710 10716 10722 10728 10735 10741 10747 10754 10760 10766 10773 10780 10787 10793 10799 10806 10811 10816 10821 10825 10829 10833 10837 10843 10848 10852 10856 10862 10867 10872 10876 10881 10886 10890 10894 10899 10904
10657 10651 10645 10640 10637 10634 10631 10628 10627 10626 10625 10625 10626 10626 10625 10625 10625 10625 10625 10624 10624 10623 10623 10621 10619 10617 10614 10613 10612 10612 10611 10613 10615 10616 10618 10622 10626 10630 10634 10638 10643 10648 10652 10657 10662 10667 10670 10675 10681 10688 10696 10702 10708 10714 10721 10727 10733 10739 10745 10751 10757 10763 10770 10777 10783 10790 10797 10802 10806 10812 10817 10821 10826 10830 10834 10838 10843 10848 10853 10857 10861 10865 10870 10875 10880 10885 10891 10897
10652 10646 10641 10636 10632 10630 10628 10625 10623 10622 10621 10621 10622 10622 10622 10622 10622 10622 10622 10621 10620 10620 10619 10618 10617 10615 10613 10610 10609 10608 10608 10608 10609 10611 10613 10615 10619 10623 10627 10632 10636 10640 10645 10650 10655 10660 10663 10668 10674 10681 10688 10694 10699 10706 10713 10718 10725 10731 10735 10740 10747 10752 10758 10765 10772 10779 10787 10792 10797 10804 10810 10813 10817 10820 10824 10829 10834 10838 10842 10847 10850 10854 10859 10865 10871 10878 10884 10890
10647 10642 10637 10632 10629 10626 10624 10622 10620 10619 10618 10618 10619 10619 10618 10619 10619 10619 10618 10618 10617 10617 10616 10615 10614 10613 10611 10609 10607 10605 10605 10605 10605 10607 10608 10610 10613 10616 10621 10626 10630 10634 10638 10643 10648 10652 10656 10661 10668 10674 10680 10686 10692 10698 10703 10710 10716 10721 10725 10731 10737 10742 10748 10755 10762 10770 10778 10783 10789 10795 10800 10803 10807 10812 10816 10821 10826 10829 10833 10836 10839 10844 10851 10858 10865 10871 10877 10882